Flag for French Guiana Past Weather in Saint-Laurent-du-Maroni, French Guiana — Yesterday and Last 2 Weeks

Now
82 °F

Scattered showers. Scattered clouds.


Feels Like: 89 °F
Forecast: 77 / 89 °F
Wind: 10 mph from East

Location: Johan A. Pengel

Current Time: Apr 24, 2017 at 4:22:58 pm

Latest Report: Apr 24, 2017 at 4:00 pm


Visibility: N/A

Pressure: 29.83 "Hg

Humidity: 79%

Dew Point: 75 °F

Location of Saint-Laurent-du-MaroniLocation

Past Weather in Saint-Laurent-du-Maroni — Graph

°F

Saint-Laurent-du-Maroni Temperature Yesterday

Maximum temperature yesterday: 93 °F (at 3:00 pm)
Minimum temperature yesterday: 73 °F (at 4:00 am)
Average temperature yesterday: 81 °F

High & Low Weather Summary for the Past Weeks

 TemperatureHumidityPressure
High93 °F (Apr 22, 2:00 pm)100% (Apr 9, 4:00 pm)29.98 "Hg (Apr 9, 4:00 pm)
Low70 °F (Apr 20, 6:00 am)44% (Apr 22, 2:00 pm)29.77 "Hg (Apr 14, 4:00 pm)
Average80 °F84%29.88 "Hg
* Reported Apr 9 3:00 pm — Apr 24 3:00 pm, Saint-Laurent-du-Maroni, Weather by CustomWeather, © 2017

Note: Actual official high and low records may vary slightly from our data, if they occured in-between our weather recording intervals... More about our weather records

Advertising

Saint-Laurent-du-Maroni Weather History for the Previous 24 Hours

Scroll right to see more
 ConditionsComfort  
Time TempWeatherWind HumidityBarometerVisibility
3:00 pm
Mon, Apr 24
81 °FScattered showers. Scattered clouds.9 mph89%29.86 "HgN/A
2:00 pm81 °FScattered showers. Scattered clouds.12 mph89%29.89 "HgN/A
1:00 pm79 °FSprinkles. Scattered clouds.5 mph94%29.92 "HgN/A
12:20 pm77 °FThunderstorms. Broken clouds.12 mph94%29.95 "Hg2 mi
12:00 pm86 °FScattered showers. Partly sunny.12 mph70%29.95 "HgN/A
11:00 am81 °FSprinkles. Partly sunny.12 mph84%29.98 "HgN/A
10:00 am84 °FScattered clouds.12 mph79%29.98 "HgN/A
9:00 am82 °FScattered clouds.10 mph84%29.95 "HgN/A
8:00 am79 °FPassing clouds.5 mph89%29.95 "HgN/A
7:00 am75 °FFog.1 mph94%29.92 "Hg3 mi
6:00 am75 °FPassing clouds.2 mph94%29.89 "HgN/A
5:00 am75 °FPassing clouds.2 mph100%29.89 "HgN/A
4:00 am77 °FPassing clouds.2 mph94%29.89 "HgN/A
3:00 am77 °FPassing clouds.5 mph94%29.89 "HgN/A
2:00 am77 °FPassing clouds.6 mph94%29.89 "HgN/A
1:00 am79 °FPassing clouds.7 mph94%29.92 "HgN/A
12:00 am79 °FPassing clouds.3 mph94%29.92 "HgN/A
11:00 pm
Sun, Apr 23
79 °FPassing clouds.5 mph94%29.92 "HgN/A
10:00 pm79 °FPassing clouds.3 mph94%29.92 "HgN/A
9:00 pm79 °FPassing clouds.6 mph94%29.89 "HgN/A
8:00 pm81 °FPassing clouds.5 mph89%29.83 "HgN/A
7:00 pm81 °FPassing clouds.7 mph89%29.83 "HgN/A
6:16 pm82 °FStrong thunderstorms. Scattered clouds.15 mph84%29.83 "Hg1 mi
6:00 pm84 °FThunderstorms. Scattered clouds.13 mph79%29.80 "HgN/A
5:00 pm86 °FThunderstorms. Scattered clouds.15 mph75%29.80 "HgN/A
4:00 pm86 °FThunderstorms. Scattered clouds.13 mph66%29.83 "HgN/A
Weather by CustomWeather, © 2017

See weather overviewHow to use our weather pages